{"data":{"norad_id":69684,"epoch":"2026-09-19T08:49:46.472736Z","epoch_age_seconds":119477,"freshness":"FRESH","line1":"1 69684U 26145H   26262.36789899  .00153747  00000+0  10111-2 0  9990","line2":"2 69684  97.2835 112.4684 0002501  66.3629 293.7898 15.75235344 13598","mean_motion":15.75235344,"eccentricity":0.0002501,"inclination_deg":97.2835,"raan_deg":112.4684,"arg_perigee_deg":66.3629,"mean_anomaly_deg":293.7898,"bstar":0.0010111,"rev_number":1359,"period_min":91.414911777145,"perigee_km":342.28036924836,"apogee_km":345.64276295112,"semimajor_km":6722.0985660997,"source":"CELESTRAK","updated_at":"2026-09-20T09:00:44.253295Z"}}